Change the Weather History Date:

Thursday, January 30, 2014

  Actual Average Record
Temperature  
Mean Temperature 22 °F -  
Max Temperature 30 °F 29 °F 50 °F (1988)
Min Temperature 14 °F 12 °F -13 °F (1991)
Degree Days  
Heating Degree Days 43    
Moisture  
Dew Point 13 °F    
Average Humidity 68    
Maximum Humidity 92    
Minimum Humidity 46    
Precipitation  
Precipitation 0.00 in - - ()
Sea Level Pressure  
Sea Level Pressure 29.74 in    
Wind  
Wind Speed 10 mph (SSW)    
Max Wind Speed 22 mph    
Max Gust Speed 38 mph    
Visibility 8 miles    
Events Snow    
Averages and records for this station are not official NWS values.
T = Trace of Precipitation, MM = Missing Value Source: NWS Daily Summary

Daily Weather History Graph

Daily Weather History Graph

Search for Another Location

Airport or City:

Trip Planner

Search our weather history database for the weather conditions in past years. The results will help you decide how hot, cold, wet, or windy it might be!

Date:

Astronomy

Jan. 30, 2014 Rise Set
Actual Time 8:00 AM EST 5:50 PM EST
Civil Twilight 7:30 AM EST 6:21 PM EST
Nautical Twilight 6:55 AM EST 6:55 PM EST
Astronomical Twilight 6:21 AM EST 7:29 PM EST
Moon 7:24 AM EST (1/30) 6:03 PM EST (1/30)
Length of Visible Light 10h 50m
Length of Day
9h 49m
Waning Crescent, 0% of the Moon is Illuminated
Jan 30
Waning Crescent
Jan 30
New
Feb 6
First Quarter
Feb 14
Full
Feb 22
Last Quarter

Hourly Weather History & Observations

Time (EST) Temp. Windchill Dew Point Humidity Pressure Visibility Wind Dir Wind Speed Gust Speed Precip Events Conditions
12:14 AM 15.4 °F 4.6 °F 5.5 °F 65% 29.94 in 10.0 mi SSW 8.1 mph - N/A   Clear
12:35 AM 15.3 °F 3.5 °F 5.5 °F 65% 29.94 in 10.0 mi South 9.2 mph - N/A   Clear
12:55 AM 14.9 °F 5.0 °F 5.5 °F 66% 29.93 in 10.0 mi South 6.9 mph 16.1 mph N/A   Clear
1:14 AM 14.9 °F 4.0 °F 5.7 °F 67% 29.93 in 10.0 mi South 8.1 mph - N/A   Clear
1:35 AM 15.3 °F 3.5 °F 6.3 °F 68% 29.93 in 10.0 mi SSW 9.2 mph - N/A   Clear
1:55 AM 15.3 °F 5.4 °F 6.4 °F 68% 29.91 in 10.0 mi SSW 6.9 mph - N/A   Clear
2:14 AM 15.6 °F 5.9 °F 6.8 °F 68% 29.90 in 10.0 mi South 6.9 mph - N/A   Clear
2:35 AM 16.0 °F 3.6 °F 7.2 °F 68% 29.90 in 10.0 mi South 10.4 mph - N/A   Clear
2:55 AM 16.2 °F 4.7 °F 6.8 °F 67% 29.89 in 10.0 mi South 9.2 mph 17.3 mph N/A   Clear
3:14 AM 16.7 °F 7.2 °F 7.3 °F 67% 29.89 in 10.0 mi South 6.9 mph - N/A   Clear
3:35 AM 17.1 °F 5.8 °F 7.5 °F 66% 29.88 in 10.0 mi South 9.2 mph 18.4 mph N/A   Clear
3:55 AM 17.4 °F 4.1 °F 7.5 °F 65% 29.87 in 10.0 mi South 12.7 mph 19.6 mph N/A   Clear
4:14 AM 17.6 °F 3.2 °F 7.2 °F 64% 29.86 in 10.0 mi South 15.0 mph 25.3 mph N/A   Clear
4:35 AM 17.6 °F 4.3 °F 6.8 °F 63% 29.85 in 10.0 mi South 12.7 mph 20.7 mph N/A   Clear
4:55 AM 18.0 °F 4.8 °F 6.6 °F 61% 29.84 in 10.0 mi South 12.7 mph 21.9 mph N/A   Clear
5:14 AM 18.1 °F 5.6 °F 6.3 °F 60% 29.84 in 10.0 mi SSW 11.5 mph 23.0 mph N/A   Clear
5:35 AM 18.3 °F 4.6 °F 5.9 °F 58% 29.83 in 10.0 mi SSW 13.8 mph 25.3 mph N/A   Scattered Clouds
5:55 AM 18.3 °F 5.9 °F 5.9 °F 58% 29.83 in 10.0 mi South 11.5 mph 25.3 mph N/A   Mostly Cloudy
6:14 AM 18.5 °F 7.5 °F 5.5 °F 57% 29.83 in 10.0 mi SSW 9.2 mph 20.7 mph N/A   Mostly Cloudy
6:35 AM 18.5 °F 6.8 °F 5.7 °F 58% 29.82 in 10.0 mi South 10.4 mph - N/A   Scattered Clouds
6:55 AM 18.1 °F 6.3 °F 5.4 °F 57% 29.82 in 10.0 mi South 10.4 mph 18.4 mph N/A   Clear
7:14 AM 17.6 °F 7.3 °F 5.4 °F 59% 29.82 in 10.0 mi South 8.1 mph - N/A   Scattered Clouds
7:35 AM 17.4 °F 12.1 °F 5.5 °F 60% 29.82 in 10.0 mi South 3.5 mph - N/A   Clear
7:55 AM 18.0 °F 7.7 °F 5.9 °F 59% 29.82 in 10.0 mi South 8.1 mph - N/A   Clear
8:15 AM 18.5 °F 10.4 °F 6.3 °F 59% 29.82 in 10.0 mi SSW 5.8 mph - N/A   Clear
8:35 AM 18.5 °F 10.4 °F 6.6 °F 60% 29.82 in 10.0 mi South 5.8 mph - N/A   Scattered Clouds
8:54 AM 18.9 °F 8.0 °F 6.8 °F 59% 29.82 in 10.0 mi South 9.2 mph - N/A   Mostly Cloudy
9:15 AM 19.4 °F 10.4 °F 7.2 °F 59% 29.82 in 10.0 mi SSW 6.9 mph - N/A   Scattered Clouds
9:35 AM 20.1 °F 8.8 °F 7.5 °F 58% 29.80 in 10.0 mi South 10.4 mph 20.7 mph N/A   Clear
9:54 AM 20.8 °F 11.2 °F 7.5 °F 56% 29.79 in 10.0 mi South 8.1 mph 20.7 mph N/A   Scattered Clouds
10:15 AM 21.4 °F 9.1 °F 7.7 °F 56% 29.79 in 10.0 mi SSW 12.7 mph 17.3 mph N/A   Scattered Clouds
10:35 AM 22.3 °F 12.2 °F 8.2 °F 55% 29.79 in 10.0 mi SSW 9.2 mph 20.7 mph N/A   Scattered Clouds
10:55 AM 23.0 °F 9.6 °F 8.2 °F 53% 29.77 in 10.0 mi SSW 16.1 mph 23.0 mph N/A   Mostly Cloudy
11:15 AM 23.5 °F 13.0 °F 8.4 °F 53% 29.77 in 10.0 mi South 10.4 mph 24.2 mph N/A   Mostly Cloudy
11:35 AM 23.9 °F 12.3 °F 8.6 °F 52% 29.75 in 10.0 mi South 12.7 mph 23.0 mph N/A   Mostly Cloudy
11:55 AM 24.8 °F 11.9 °F 8.8 °F 51% 29.74 in 10.0 mi South 16.1 mph 24.2 mph N/A   Mostly Cloudy
12:15 PM 25.7 °F 13.5 °F 9.1 °F 50% 29.72 in 10.0 mi South 15.0 mph 23.0 mph N/A   Mostly Cloudy
12:34 PM 26.4 °F 15.5 °F 9.3 °F 49% 29.70 in 10.0 mi South 12.7 mph 27.6 mph N/A   Overcast
12:55 PM 27.0 °F 18.0 °F 9.7 °F 48% 29.67 in 10.0 mi South 9.2 mph 23.0 mph N/A   Overcast
1:15 PM 27.5 °F 18.6 °F 9.7 °F 47% 29.66 in 10.0 mi South 9.2 mph 19.6 mph N/A   Overcast
1:35 PM 28.2 °F 18.9 °F 9.9 °F 46% 29.66 in 10.0 mi South 10.4 mph 20.7 mph N/A   Overcast
1:55 PM 27.9 °F 18.4 °F 10.9 °F 49% 29.63 in 10.0 mi South 10.4 mph 23.0 mph N/A   Overcast
2:15 PM 27.3 °F 17.7 °F 10.6 °F 49% 29.61 in 10.0 mi South 10.4 mph 19.6 mph N/A   Overcast
2:35 PM 27.5 °F 16.3 °F 10.4 °F 49% 29.59 in 10.0 mi South 13.8 mph 18.4 mph N/A   Mostly Cloudy
2:55 PM 28.2 °F 17.7 °F 10.6 °F 48% 29.60 in 10.0 mi South 12.7 mph 21.9 mph N/A   Overcast
3:14 PM 28.6 °F 18.7 °F 10.2 °F 46% 29.59 in 10.0 mi SSW 11.5 mph 20.7 mph N/A   Overcast
3:35 PM 27.5 °F 14.6 °F 13.5 °F 56% 29.59 in 5.0 mi SSW 18.4 mph 31.1 mph N/A Snow Light Snow
3:55 PM 26.2 °F 11.9 °F 17.8 °F 70% 29.60 in 0.8 mi SW 21.9 mph 38.0 mph N/A Snow Light Snow
4:14 PM 24.6 °F 13.2 °F 20.5 °F 84% 29.61 in 0.2 mi SSW 12.7 mph 23.0 mph N/A Snow Snow
4:35 PM 24.4 °F 13.0 °F 21.2 °F 87% 29.60 in 0.5 mi SW 12.7 mph 18.4 mph N/A Snow Snow
4:54 PM 24.8 °F 11.1 °F 21.0 °F 86% 29.60 in 1.2 mi SW 18.4 mph 25.3 mph N/A Snow Light Snow
5:15 PM 24.8 °F 14.6 °F 21.2 °F 86% 29.61 in 0.2 mi SSW 10.4 mph 23.0 mph N/A Snow Snow
5:35 PM 24.8 °F 11.5 °F 21.6 °F 87% 29.61 in 0.2 mi SSW 17.3 mph 23.0 mph N/A Snow Snow
5:54 PM 24.8 °F 13.4 °F 21.7 °F 88% 29.60 in 0.2 mi SSW 12.7 mph 21.9 mph N/A Snow Snow
6:15 PM 24.8 °F 14.6 °F 22.1 °F 89% 29.60 in 0.5 mi SSW 10.4 mph 19.6 mph N/A Snow Snow
6:35 PM 25.3 °F 14.7 °F 23.0 °F 91% 29.61 in 1.0 mi SW 11.5 mph 17.3 mph N/A Snow Snow
6:54 PM 25.5 °F 15.5 °F 23.4 °F 92% 29.61 in 1.5 mi SW 10.4 mph - N/A Snow Light Snow
7:15 PM 26.4 °F 16.6 °F 24.3 °F 92% 29.62 in 2.0 mi SW 10.4 mph - N/A Snow Light Snow
7:35 PM 28.4 °F 15.4 °F 25.5 °F 89% 29.62 in 3.0 mi WSW 19.6 mph 27.6 mph N/A Snow Light Snow
7:54 PM 29.1 °F 17.9 °F 25.5 °F 86% 29.62 in 4.0 mi WSW 15.0 mph 23.0 mph N/A Snow Light Snow
8:15 PM 29.3 °F 18.6 °F 25.5 °F 86% 29.63 in 4.0 mi WSW 13.8 mph 21.9 mph N/A Snow Light Snow
8:34 PM 29.3 °F 17.7 °F 25.5 °F 86% 29.63 in 5.0 mi West 16.1 mph 21.9 mph N/A Snow Light Snow
8:54 PM 29.7 °F 19.1 °F 25.7 °F 85% 29.64 in 7.0 mi West 13.8 mph 20.7 mph N/A Snow Light Snow
9:15 PM 30.0 °F 19.1 °F 25.7 °F 84% 29.65 in 5.0 mi West 15.0 mph 19.6 mph N/A Snow Light Snow
9:34 PM 30.0 °F 20.0 °F 25.7 °F 84% 29.66 in 5.0 mi WSW 12.7 mph 17.3 mph N/A Snow Light Snow
9:54 PM 30.0 °F 19.5 °F 26.2 °F 86% 29.67 in 3.0 mi WSW 13.8 mph 18.4 mph N/A Snow Light Snow
10:15 PM 30.0 °F 20.0 °F 26.2 °F 86% 29.67 in 5.0 mi West 12.7 mph 19.6 mph N/A Snow Light Snow
10:34 PM 30.2 °F 20.8 °F 26.2 °F 85% 29.68 in 7.0 mi West 11.5 mph 18.4 mph N/A Snow Light Snow
10:55 PM 30.2 °F 19.8 °F 26.1 °F 85% 29.68 in 7.0 mi West 13.8 mph 21.9 mph N/A   Overcast
11:14 PM 30.2 °F 20.8 °F 25.9 °F 84% 29.70 in 10.0 mi West 11.5 mph - N/A   Overcast
11:34 PM 30.2 °F 22.6 °F 25.7 °F 83% 29.71 in 10.0 mi West 8.1 mph - N/A Snow Light Snow
11:55 PM 30.0 °F 21.1 °F 25.5 °F 83% 29.72 in 10.0 mi West 10.4 mph - N/A Snow Light Snow